Weather observations for the past three days for
Huntsville, Huntsville International / Jones Field
Imperial (Metric)
Date Time (cdt) Wind (mph) Vis. (mi.) Weather Sky Cond. Temperature (ºF) Relative Humidity Wind Chill (°F) Heat Index (°F) Pressure Precipitation (in)
Air Dwpt 6 hour altimeter (in) sea level (mb) 1 hr 3 hr 6 hr
Max. Min.
12 22:53 Calm 10.00 Fair CLR 80.1 69.1 69% 83 30.13 1019.4
12 21:53 NW 5 10.00 Fair CLR 82.9 66.9 59% 86 30.12 1019.0
12 20:53 W 3 10.00 Partly Cloudy SCT080 87.1 70 57% 92 30.1 1018.4
12 19:53 SW 3 10.00 A Few Clouds FEW080 88 68 52% 92 30.09 1018.1
12 18:53 SW 5 10.00 A Few Clouds FEW085 91 66 96.1 91 44% 94 30.07 1017.4
12 17:53 SW 6 10.00 A Few Clouds FEW085 91.9 64 40% 94 30.06 1017.0
12 16:53 SW 5 10.00 A Few Clouds FEW080 FEW210 93.9 63 36% 95 30.06 1017.0
12 15:53 W 3 10.00 Partly Cloudy FEW075 SCT110 SCT210 95 64 36% 97 30.07 1017.3
12 14:53 SW 5 10.00 Partly Cloudy FEW070TCU SCT100 SCT240 91.9 64 40% 94 30.08 1017.7
12 13:53 Vrbl 5 10.00 Partly Cloudy SCT070TCU SCT110 SCT250 93 64 38% 95 30.1 1018.4
12 12:53 W 5 10.00 Partly Cloudy SCT060TCU SCT110 SCT250 91.9 64 93 72 40% 94 30.12 1018.9
12 10:53 SE 6 10.00 A Few Clouds FEW047 FEW250 88 66.9 50% 91 30.14 1019.6
12 09:53 Vrbl 3 10.00 A Few Clouds FEW250 84.9 69.1 59% 89 30.13 1019.4
12 08:53 Calm 10.00 A Few Clouds FEW250 81 68 65% 84 30.12 1019.2
12 07:53 Calm 10.00 A Few Clouds FEW250 78.1 66.9 69% 80 30.11 1018.6
12 06:53 Calm 10.00 A Few Clouds FEW250 72 69.1 75 69.1 91% 30.09 1018.1
12 05:53 Calm 10.00 A Few Clouds FEW250 70 66.9 90% 30.08 1017.7
12 04:53 Calm 10.00 Fair CLR 70 66.9 90% 30.07 1017.4
12 03:53 Calm 10.00 Fair CLR 71.1 68 90% 30.05 1016.6
12 02:53 Calm 10.00 Fair CLR 72 68 87% 30.04 1016.4
12 01:53 Calm 10.00 Fair CLR 73.9 68 82% 30.04 1016.2
12 00:53 Calm 10.00 Fair CLR 75 71.1 89.1 73.9 88% 75 30.05 1016.6
11 23:53 Calm 10.00 A Few Clouds FEW080 75 71.1 88% 75 30.06 1016.9
11 22:53 Calm 10.00 Fair CLR 78.1 69.1 74% 80 30.05 1016.8
11 21:53 Calm 10.00 Fair CLR 79 68 69% 81 30.04 1016.3
11 20:53 Calm 10.00 A Few Clouds FEW090 FEW250 81 68 65% 84 30.02 1015.8
11 19:53 Calm 10.00 A Few Clouds FEW090 FEW250 84 70 63% 88 30.01 1015.4
11 18:53 SW 3 10.00 Partly Cloudy FEW090 SCT250 89.1 64.9 91.9 88 45% 91 30.01 1015.4
11 17:53 Calm 10.00 Partly Cloudy FEW085 SCT250 91 61 37% 91 30.01 1015.4
11 16:53 Calm 10.00 Partly Cloudy SCT090 90 62.1 39% 90 30.02 1015.6
11 15:53 NW 3 10.00 Partly Cloudy FEW075 SCT090 90 61 38% 90 30.02 1015.9
11 14:53 Calm 10.00 Partly Cloudy FEW070 SCT080 89.1 60.1 38% 89 30.03 1016.1
11 13:53 Vrbl 3 10.00 Partly Cloudy SCT060 90 62.1 39% 90 30.05 1016.6
11 12:53 Calm 10.00 Partly Cloudy SCT060 90 63 90 73 41% 91 30.06 1016.9
11 11:53 Vrbl 5 10.00 Partly Cloudy SCT055 88 64 45% 89 30.07 1017.4
11 10:53 N 6 10.00 Partly Cloudy SCT044 84.9 66 53% 87 30.07 1017.5
11 09:53 Calm 10.00 A Few Clouds FEW038 FEW250 84.9 66 53% 87 30.07 1017.5
11 08:53 Calm 10.00 A Few Clouds FEW060 81 68 65% 84 30.08 1017.9
11 07:53 Calm 10.00 A Few Clouds FEW060 77 66 69% 79 30.07 1017.6
11 06:53 Calm 10.00 A Few Clouds FEW060 FEW250 73 66.9 75 69.1 81% 30.06 1017.1
11 05:53 Calm 10.00 A Few Clouds FEW060 FEW250 69.1 66 90% 30.05 1016.7
11 04:53 Calm 10.00 Fair CLR 69.1 66.9 93% 30.04 1016.3
11 03:53 Calm 10.00 Fair CLR 70 68 93% 30.03 1016.0
11 02:53 Calm 10.00 Fair CLR 73 64.9 76% 30.02 1015.9
11 01:53 N 3 10.00 Fair CLR 73.9 66 76% 30.02 1015.9
11 00:53 N 3 10.00 A Few Clouds FEW060 75 64.9 88 73 71% 77 30.03 1016.1
10 23:53 Calm 10.00 A Few Clouds FEW060 73.9 69.1 85% 30.03 1016.1
10 22:53 Calm 10.00 Partly Cloudy SCT060 75 71.1 88% 75 30.02 1015.9
10 21:53 Calm 10.00 A Few Clouds FEW070 75.9 70 82% 77 30.01 1015.3
10 20:53 NW 3 10.00 A Few Clouds FEW065 FEW250 79 68 69% 81 30 1015.0
10 19:53 Calm 10.00 A Few Clouds FEW065 FEW250 82.9 64 53% 84 29.99 1014.8
10 18:53 N 5 10.00 Partly Cloudy FEW065 SCT250 88 62.1 90 84.9 42% 88 29.99 1014.7
10 17:53 NE 5 10.00 Partly Cloudy SCT060 SCT250 88 63 43% 89 29.99 1014.7
10 16:53 N 6 10.00 Partly Cloudy SCT060 SCT250 88 63 43% 89 29.99 1014.7
10 15:53 N 8 10.00 Partly Cloudy SCT050 SCT250 89.1 64.9 45% 91 30 1014.9
10 14:53 N 8 G 17 10.00 Partly Cloudy SCT050 SCT250 87.1 64.9 48% 89 30 1015.1
10 13:53 Vrbl 7 10.00 Partly Cloudy SCT049 SCT250 86 64.9 49% 88 30.01 1015.5
10 12:53 N 13 G 20 10.00 Partly Cloudy SCT042 84.9 66 84.9 72 53% 87 30.02 1015.7
10 11:53 NW 9 10.00 Mostly Cloudy BKN038 BKN045 81 66 61% 83 30.03 1016.3
10 10:53 NW 7 10.00 Mostly Cloudy BKN030 BKN039 78.1 66 67% 80 30.04 1016.3
10 09:53 NW 10 10.00 Mostly Cloudy FEW023 BKN029 78.1 66 67% 80 30.03 1016.1
10 08:53 NW 10 10.00 Mostly Cloudy FEW023 BKN027 73.9 64.9 74% 30.03 1016.0
10 07:53 NW 7 10.00 A Few Clouds FEW025 FEW032 73.9 66 76% 30.01 1015.5
10 06:53 NW 9 10.00 Partly Cloudy SCT023 72 64.9 73.9 71.1 79% 30 1015.2
10 05:53 NW 7 10.00 Mostly Cloudy BKN025 BKN250 71.1 66 84% 29.99 1014.8
10 04:53 NW 8 10.00 Overcast OVC023 72 64.9 79% 29.98 1014.3
10 03:53 W 9 10.00 A Few Clouds FEW020 71.1 66 84% 29.97 1013.9
10 02:53 Calm 10.00 Mostly Cloudy BKN022 72 66 82% 29.95 1013.2
10 01:53 W 8 G 22 10.00 Partly Cloudy SCT026 73 64.9 76% 29.94 1013.0
10 00:53 W 9 10.00 Fair CLR 73.9 66.9 84.9 73.9 79% 29.94 1013.0 0.17
09 23:53 SW 9 10.00 A Few Clouds FEW030 75 66.9 76% 76 29.94 1012.9
Date Time (cdt) Wind (mph) Vis. (mi.) Weather Sky Cond. Air Dwpt Max. Min. Relative Humidity Wind Chill (°F) Heat Index (°F) altimeter (in) sea level (mb) 1 hr 3 hr 6 hr
6 hour
Temperature (ºF) Pressure Precipitation (in)